Location: Ostrava
(49.8330°N, 18.2830°E)
Time: 15:12:27
(UTC+02:00)

Cosmos 1400 Rocket - Visible Passes

Search period start: 01 April 2015 00:00
Search period end: 11 April 2015 00:00
Orbit: 526 x 577 km, 81.2° (Epoch: 30 March)

Date Brightness Start Highest point End Pass type
(mag) Time Alt. Az. Time Alt. Az. Time Alt. Az.
01 Apr 2.7 20:03:44 10° S 20:07:34 60° E 20:11:26 10° NNE visible
01 Apr 6.0 21:42:24 10° W 21:44:40 14° WNW 21:46:49 10° NNW visible
02 Apr 2.7 19:59:48 10° S 20:03:40 68° E 20:07:34 10° NNE visible
02 Apr 6.1 21:38:52 10° W 21:40:51 13° WNW 21:42:42 10° NNW visible
03 Apr 2.7 19:55:53 10° S 19:59:46 77° E 20:03:41 10° NNE visible
03 Apr 6.3 21:35:24 10° W 21:37:02 12° WNW 21:38:31 10° NW visible
04 Apr 2.7 19:51:58 10° S 19:55:52 86° E 19:59:48 10° NNE visible
04 Apr 6.4 21:32:03 10° WNW 21:33:12 11° WNW 21:34:11 10° NW visible
08 Apr 4.0 05:35:08 10° N 05:39:03 49° ENE 05:43:00 10° SSE visible
09 Apr 3.8 05:31:10 10° N 05:35:08 54° ENE 05:39:08 10° SSE visible
10 Apr 3.5 05:27:11 10° N 05:31:12 61° ENE 05:35:15 10° SSE visible
